DW3807 Weather Reports


time (UTC)temp
C
wind
direction
speed
KPH
gust
KPH
rain 1hr
cm
rain 24hr
cm
rain mn
cm
humidity
%
barometer
mb
20260503022022 3 271 0.0 1.6 0.00 0.00 0.00 71 1016.5
20260503021541 3 251 1.6 3.2 0.00 0.00 0.00 71 1016.5
20260503021021 3 248 1.6 1.6 0.00 0.00 0.00 71 1016.5
20260503020518 3 259 0.0 3.2 0.00 0.00 0.00 70 1016.5
20260503020019 3 243 0.0 3.2 0.00 0.00 0.00 69 1016.5
20260503015601 3 273 0.0 3.2 0.00 0.00 0.00 68 1016.5
20260503015021 3 251 0.0 3.2 0.00 0.00 0.00 68 1016.4
20260503014523 4 243 0.0 3.2 0.00 0.00 0.00 67 1016.4
20260503014022 4 232 1.6 3.2 0.00 0.00 0.00 66 1016.4
20260503013522 4 259 0.0 1.6 0.00 0.00 0.00 65 1016.4
20260503013021 4 235 0.0 3.2 0.00 0.00 0.00 65 1016.3
20260503012523 5 256 1.6 3.2 0.00 0.00 0.00 65 1016.3
20260503012019 5 250 1.6 3.2 0.00 0.00 0.00 64 1016.3
20260503011519 5 276 0.0 3.2 0.00 0.00 0.00 63 1016.3
20260503011022 5 303 1.6 3.2 0.00 0.00 0.00 62 1016.3
20260503010519 5 290 0.0 1.6 0.00 0.00 0.00 61 1016.3
20260503010019 5 282 0.0 1.6 0.00 0.00 0.00 60 1016.3
20260503005519 6 290 0.0 1.6 0.00 0.00 0.00 59 1016.3
20260503005040 6 267 0.0 1.6 0.00 0.00 0.00 59 1016.3
20260503004519 6 245 1.6 3.2 0.00 0.00 0.00 58 1016.3
20260503004100 6 211 1.6 3.2 0.00 0.00 0.00 57 1016.3
20260503003521 7 226 1.6 4.8 0.00 0.00 0.00 57 1016.3
20260503003019 7 207 1.6 3.2 0.00 0.00 0.00 56 1016.3
20260503002523 7 210 1.6 3.2 0.00 0.00 0.00 55 1016.2
20260503002019 7 159 1.6 4.8 0.00 0.00 0.00 55 1016.2
20260503001521 7 199 1.6 4.8 0.00 0.00 0.00 54 1016.2
20260503001020 8 237 1.6 4.8 0.00 0.00 0.00 53 1016.2
20260503000520 8 270 1.6 4.8 0.00 0.00 0.00 52 1016.2
20260503000021 8 268 1.6 3.2 0.00 0.00 0.00 52 1016.2
20260502235520 8 212 3.2 8.0 0.00 0.00 0.00 50 1016.2
20260502235020 8 300 1.6 4.8 0.00 0.00 0.00 49 1016.2
20260502234520 8 232 1.6 8.0 0.00 0.00 0.00 48 1016.2
20260502234021 9 247 3.2 8.0 0.00 0.00 0.00 48 1016.2
20260502233520 9 260 3.2 6.4 0.00 0.00 0.00 49 1016.2
20260502233020 9 233 3.2 8.0 0.00 0.00 0.00 48 1016.3
20260502232542 10 333 1.6 6.4 0.00 0.00 0.00 47 1016.3
20260502232040 10 325 3.2 8.0 0.00 0.00 0.00 48 1016.3
20260502231521 10 227 3.2 8.0 0.00 0.00 0.00 46 1016.3
20260502231021 10 287 3.2 8.0 0.00 0.00 0.00 46 1016.4
20260502230522 10 252 3.2 6.4 0.00 0.00 0.00 46 1016.4
20260502230021 10 307 3.2 6.4 0.00 0.00 0.00 46 1016.4
20260502225521 10 317 3.2 8.0 0.00 0.00 0.00 46 1016.4
20260502225019 10 299 4.8 9.7 0.00 0.00 0.00 46 1016.4
20260502224521 10 355 3.2 12.9 0.00 0.00 0.00 46 1016.5
20260502224021 10 317 3.2 9.7 0.00 0.00 0.00 46 1016.5
20260502223521 10 283 6.4 11.3 0.00 0.00 0.00 46 1016.5
20260502223022 10 342 4.8 9.7 0.00 0.00 0.00 47 1016.5
20260502222521 10 322 3.2 6.4 0.00 0.00 0.00 47 1016.6
20260502222021 10 298 4.8 11.3 0.00 0.00 0.00 47 1016.6
20260502221523 10 268 4.8 19.3 0.00 0.00 0.00 47 1016.6
20260502221019 10 287 4.8 12.9 0.00 0.00 0.00 47 1016.6
20260502220538 10 281 4.8 12.9 0.00 0.00 0.00 47 1016.7
20260502220018 10 306 4.8 14.5 0.00 0.00 0.00 47 1016.6
20260502215523 11 326 4.8 12.9 0.00 0.00 0.00 48 1016.6
20260502215022 11 303 4.8 11.3 0.00 0.00 0.00 48 1016.6
20260502214642 11 158 3.2 6.4 0.00 0.00 0.00 48 1016.7
20260502214043 10 250 3.2 9.7 0.00 0.00 0.00 48 1016.7
20260502213539 10 300 4.8 9.7 0.00 0.00 0.00 50 1016.7
20260502213039 10 342 3.2 8.0 0.00 0.00 0.00 50 1016.7
20260502212519 10 303 4.8 12.9 0.00 0.00 0.00 49 1016.6
20260502212021 10 306 4.8 12.9 0.00 0.00 0.00 50 1016.7
20260502211519 10 303 6.4 12.9 0.00 0.00 0.00 49 1016.7
20260502211019 10 334 4.8 12.9 0.00 0.00 0.00 50 1016.7
20260502210520 10 307 4.8 11.3 0.00 0.00 0.00 49 1016.8
20260502210019 10 179 4.8 11.3 0.00 0.00 0.00 50 1016.8
20260502205519 10 253 4.8 16.1 0.00 0.00 0.00 51 1016.9
20260502205019 10 279 6.4 14.5 0.00 0.00 0.00 50 1016.9
20260502204522 10 298 4.8 11.3 0.00 0.00 0.00 51 1016.9
20260502204019 10 294 6.4 14.5 0.00 0.00 0.00 51 1017.0
20260502203519 10 296 6.4 11.3 0.00 0.00 0.00 50 1017.0
20260502203040 10 303 6.4 16.1 0.00 0.00 0.00 52 1017.1
20260502202521 10 273 6.4 12.9 0.00 0.00 0.00 51 1017.2
20260502202019 10 278 4.8 11.3 0.00 0.00 0.00 51 1017.2
20260502201519 10 286 6.4 16.1 0.00 0.00 0.00 52 1017.2
20260502201020 10 281 4.8 12.9 0.00 0.00 0.00 51 1017.3
20260502200521 10 318 4.8 14.5 0.00 0.00 0.00 53 1017.4
20260502200019 10 306 8.0 16.1 0.00 0.00 0.00 53 1017.4
20260502195521 10 307 6.4 12.9 0.00 0.00 0.00 52 1017.4
20260502195019 10 324 6.4 19.3 0.00 0.00 0.00 52 1017.5
20260502194519 10 276 6.4 16.1 0.00 0.00 0.00 52 1017.5
20260502194020 9 246 4.8 12.9 0.00 0.00 0.00 53 1017.6
20260502193521 9 290 4.8 16.1 0.00 0.00 0.00 54 1017.7
20260502193020 9 248 4.8 11.3 0.00 0.00 0.00 53 1017.7
20260502192540 9 276 4.8 12.9 0.00 0.00 0.00 55 1017.8
20260502192024 8 321 4.8 12.9 0.00 0.00 0.00 54 1017.8
20260502191521 8 285 4.8 11.3 0.00 0.00 0.00 54 1017.8
20260502191022 9 320 6.4 14.5 0.00 0.00 0.00 54 1017.8
20260502190521 8 235 4.8 11.3 0.00 0.00 0.00 54 1017.9
20260502190018 8 287 3.2 11.3 0.00 0.00 0.00 54 1018.0
20260502185519 8 310 4.8 9.7 0.00 0.00 0.00 55 1018.0
20260502185020 8 310 4.8 11.3 0.00 0.00 0.00 55 1018.0
20260502184520 8 300 4.8 11.3 0.00 0.00 0.00 54 1018.0
20260502184020 9 308 4.8 11.3 0.00 0.00 0.00 53 1018.0
20260502183525 9 292 4.8 9.7 0.00 0.00 0.00 53 1018.1
20260502182521 9 309 6.4 16.1 0.00 0.00 0.00 54 1018.0
20260502182018 8 259 4.8 11.3 0.00 0.00 0.00 55 1018.1
20260502181520 8 246 4.8 14.5 0.00 0.00 0.00 54 1018.2
20260502181018 8 220 3.2 9.7 0.00 0.00 0.00 54 1018.2
20260502180619 8 283 4.8 9.7 0.00 0.00 0.00 55 1018.3
20260502164020 7 295 3.2 11.3 0.00 0.00 0.00 60 1019.0
20260502163520 7 274 4.8 11.3 0.00 0.00 0.00 60 1019.0
20260502163021 7 259 3.2 11.3 0.00 0.00 0.00 60 1019.1
20260502162520 6 238 3.2 9.7 0.00 0.00 0.00 61 1019.2
20260502162020 7 273 4.8 12.9 0.00 0.00 0.00 60 1019.2
20260502161600 7 273 3.2 11.3 0.00 0.00 0.00 60 1019.2
20260502161022 7 307 4.8 14.5 0.00 0.00 0.00 58 1019.2
20260502160521 7 315 4.8 14.5 0.00 0.00 0.00 56 1019.1
20260502152023 7 329 3.2 11.3 0.00 0.00 0.00 59 1019.2
20260502151541 7 10 4.8 11.3 0.00 0.00 0.00 60 1019.2
20260502151021 7 325 4.8 9.7 0.00 0.00 0.00 59 1019.2
20260502150521 7 324 4.8 9.7 0.00 0.00 0.00 59 1019.2
20260502130520 4 34 4.8 12.9 0.00 0.00 0.00 75 1019.5
20260502123540 5 32 4.8 9.7 0.00 0.00 0.00 79 1019.5
20260502123020 4 344 3.2 8.0 0.00 0.00 0.00 81 1019.5
20260502122522 4 335 3.2 6.4 0.00 0.00 0.00 82 1019.4
20260502122020 4 5 3.2 6.4 0.00 0.00 0.00 84 1019.4
20260502121540 3 8 3.2 8.0 0.00 0.00 0.00 83 1019.4
20260502121041 3 331 3.2 6.4 0.00 0.00 0.00 85 1019.4
20260502120522 3 20 3.2 6.4 0.00 0.00 0.00 87 1019.3
20260502115521 3 325 1.6 4.8 0.00 0.00 0.00 88 1019.3
20260502115024 3 309 1.6 6.4 0.00 0.00 0.00 89 1019.2
20260502114518 3 307 1.6 4.8 0.00 0.00 0.00 90 1019.2
20260502114018 2 283 0.0 1.6 0.00 0.00 0.00 91 1019.1
20260502113521 2 282 0.0 3.2 0.00 0.00 0.00 91 1019.1
20260502113043 1 300 0.0 1.6 0.00 0.00 0.00 91 1019.1
20260502112520 1 276 1.6 4.8 0.00 0.00 0.00 92 1019.0
20260502112020 0 255 0.0 1.6 0.00 0.00 0.00 92 1019.0
20260502111522 0 280 0.0 1.6 0.00 0.00 0.00 92 1019.0
20260502111018 0 278 0.0 1.6 0.00 0.00 0.00 92 1019.0
20260502110539 0 254 1.6 1.6 0.00 0.00 0.00 92 1018.9
20260502110017 -1 253 1.6 3.2 0.00 0.00 0.00 92 1018.9
20260502105519 -1 278 1.6 3.2 0.00 0.00 0.00 91 1018.9
20260502105018 -1 306 1.6 1.6 0.00 0.00 0.00 91 1018.9
20260502104520 -1 343 0.0 1.6 0.00 0.00 0.00 91 1018.9
20260502104044 -1 337 1.6 1.6 0.00 0.00 0.00 91 1018.9
20260502103521 0 323 0.0 1.6 0.00 0.00 0.00 91 1018.9
20260502103039 0 303 1.6 1.6 0.00 0.00 0.00 91 1018.9
20260502102520 0 301 1.6 3.2 0.00 0.00 0.00 91 1018.9
20260502102039 0 276 1.6 3.2 0.00 0.00 0.00 91 1018.9
20260502101519 0 279 0.0 3.2 0.00 0.00 0.00 90 1018.9
20260502101020 0 285 1.6 1.6 0.00 0.00 0.00 90 1018.8
20260502100519 0 266 1.6 3.2 0.00 0.00 0.00 90 1018.8
20260502091521 0 260 1.6 3.2 0.00 0.00 0.00 88 1018.5
20260502091020 0 295 0.0 1.6 0.00 0.00 0.00 88 1018.5
20260502090520 0 271 1.6 1.6 0.00 0.00 0.00 88 1018.5
20260502071520 0 240 1.6 3.2 0.00 0.00 0.00 86 1018.3
20260502071039 0 266 1.6 3.2 0.00 0.00 0.00 85 1018.3
20260502070518 0 292 1.6 3.2 0.00 0.00 0.00 85 1018.3
20260502070019 0 283 1.6 3.2 0.00 0.00 0.00 85 1018.3
20260502065521 0 268 1.6 3.2 0.00 0.00 0.00 85 1018.3
20260502065039 0 270 1.6 3.2 0.00 0.00 0.00 84 1018.3
20260502064522 0 261 0.0 1.6 0.00 0.00 0.00 84 1018.4
20260502064103 0 254 1.6 1.6 0.00 0.00 0.00 84 1018.4
20260502063519 0 288 0.0 1.6 0.00 0.00 0.00 83 1018.4
20260502063022 0 287 1.6 3.2 0.00 0.00 0.00 83 1018.5
20260502062519 0 264 1.6 3.2 0.00 0.00 0.00 83 1018.5
20260502062020 0 283 0.0 1.6 0.00 0.00 0.00 83 1018.5
20260502061539 1 260 0.0 3.2 0.00 0.00 0.00 82 1018.6
20260502061019 1 246 1.6 3.2 0.00 0.00 0.00 82 1018.6
20260502060521 1 240 1.6 3.2 0.00 0.00 0.00 82 1018.6
20260502060019 1 247 1.6 3.2 0.00 0.00 0.00 82 1018.6
20260502055521 1 234 1.6 3.2 0.00 0.00 0.00 82 1018.7
20260502055019 1 242 1.6 3.2 0.00 0.00 0.00 81 1018.6
20260502054541 1 275 0.0 3.2 0.00 0.00 0.00 80 1018.6
20260502054019 1 276 1.6 3.2 0.00 0.00 0.00 79 1018.6
20260502053520 1 284 1.6 3.2 0.00 0.00 0.00 79 1018.5
20260502053021 1 309 1.6 3.2 0.00 0.00 0.00 79 1018.6
20260502052520 1 288 1.6 3.2 0.00 0.00 0.00 78 1018.6
20260502052020 1 295 1.6 3.2 0.00 0.00 0.00 78 1018.5
20260502051540 1 302 1.6 3.2 0.00 0.00 0.00 78 1018.5
20260502051021 1 311 1.6 3.2 0.00 0.00 0.00 77 1018.6
20260502050540 1 316 1.6 3.2 0.00 0.00 0.00 77 1018.6
20260502050017 1 311 1.6 3.2 0.00 0.00 0.00 77 1018.5
20260502045519 1 314 0.0 1.6 0.00 0.00 0.00 77 1018.5
20260502045017 1 291 1.6 3.2 0.00 0.00 0.00 77 1018.4
20260502044517 1 306 1.6 4.8 0.00 0.00 0.00 77 1018.3
20260502044022 1 296 1.6 9.7 0.00 0.00 0.00 76 1018.4
20260502043521 1 299 1.6 4.8 0.00 0.00 0.00 76 1018.4
20260502043020 1 294 1.6 4.8 0.00 0.00 0.00 76 1018.4
20260502042518 1 278 0.0 1.6 0.00 0.00 0.00 75 1018.3
20260502042022 1 304 1.6 4.8 0.00 0.00 0.00 75 1018.3
20260502041540 1 306 1.6 3.2 0.00 0.00 0.00 75 1018.3
20260502041021 1 297 1.6 4.8 0.00 0.00 0.00 74 1018.2
20260502040522 1 304 1.6 4.8 0.00 0.00 0.00 74 1018.2
20260502040021 2 315 1.6 4.8 0.00 0.00 0.00 74 1018.2
20260502035521 2 301 1.6 3.2 0.00 0.00 0.00 73 1018.2
20260502035101 2 316 1.6 4.8 0.00 0.00 0.00 73 1018.2
20260502034519 2 315 1.6 4.8 0.00 0.00 0.00 73 1018.1
20260502034018 2 320 1.6 4.8 0.00 0.00 0.00 72 1018.1
20260502033521 2 324 1.6 3.2 0.00 0.00 0.00 72 1018.1
20260502033022 2 333 3.2 9.7 0.00 0.00 0.00 71 1018.0
20260502032521 2 335 3.2 8.0 0.00 0.00 0.00 71 1018.0
20260502032022 2 332 1.6 6.4 0.00 0.00 0.00 70 1018.0
20260502031522 2 322 1.6 3.2 0.00 0.00 0.00 70 1018.1
20260502031020 2 325 1.6 4.8 0.00 0.00 0.00 69 1018.0
20260502030519 2 321 3.2 6.4 0.00 0.00 0.00 69 1018.0
20260502030019 2 308 1.6 4.8 0.00 0.00 0.00 68 1018.0
20260502025523 2 318 3.2 9.7 0.00 0.00 0.00 68 1018.0
20260502025022 2 313 1.6 4.8 0.00 0.00 0.00 68 1018.0
20260502024522 2 345 1.6 6.4 0.00 0.00 0.00 67 1017.9
20260502024022 2 354 1.6 6.4 0.00 0.00 0.00 67 1017.9
20260502023521 2 360 3.2 8.0 0.00 0.00 0.00 67 1017.9
20260502023019 3 351 3.2 11.3 0.00 0.00 0.00 67 1017.9
20260502022520 3 355 3.2 6.4 0.00 0.00 0.00 66 1017.9